TimeEDT,TemperatureF,Dew PointF,Humidity,Sea Level PressureIn,VisibilityMPH,Wind Direction,Wind SpeedMPH,Gust SpeedMPH,PrecipitationIn,Events,Conditions,WindDirDegrees,DateUTC
12:15 AM,78.8,75.2,89,30.04,7.0,Calm,Calm,-,N/A,,Clear,0,2013-08-05 04:15:00
12:35 AM,78.8,77.0,94,30.04,8.0,Calm,Calm,-,N/A,,Clear,0,2013-08-05 04:35:00
12:55 AM,78.8,77.0,94,30.03,7.0,SW,3.5,-,N/A,,Clear,230,2013-08-05 04:55:00
1:15 AM,78.8,77.0,94,30.03,7.0,SW,3.5,-,N/A,,Clear,230,2013-08-05 05:15:00
1:35 AM,78.8,77.0,94,30.03,7.0,WSW,3.5,-,N/A,,Clear,240,2013-08-05 05:35:00
1:55 AM,78.8,77.0,94,30.02,6.0,WSW,3.5,-,N/A,,Clear,240,2013-08-05 05:55:00
2:15 AM,78.8,77.0,94,30.01,7.0,WSW,3.5,-,N/A,,Clear,240,2013-08-05 06:15:00
2:35 AM,78.8,77.0,94,30.00,8.0,WSW,3.5,-,N/A,,Clear,250,2013-08-05 06:35:00
2:55 AM,78.8,77.0,94,29.99,7.0,WSW,3.5,-,N/A,,Clear,240,2013-08-05 06:55:00
3:15 AM,78.8,77.0,94,29.99,7.0,WSW,3.5,-,N/A,,Clear,240,2013-08-05 07:15:00
3:35 AM,78.8,77.0,94,29.99,7.0,Calm,Calm,-,N/A,,Clear,0,2013-08-05 07:35:00
3:55 AM,78.8,77.0,94,29.99,7.0,SW,4.6,-,N/A,,Clear,230,2013-08-05 07:55:00
4:15 AM,78.8,77.0,94,29.98,7.0,SW,4.6,-,N/A,,Clear,230,2013-08-05 08:15:00
4:55 AM,78.8,77.0,94,29.98,7.0,WSW,4.6,-,N/A,,Clear,240,2013-08-05 08:55:00
5:15 AM,78.8,77.0,94,29.98,7.0,West,4.6,-,N/A,,Clear,260,2013-08-05 09:15:00
5:35 AM,78.8,78.8,100,29.99,7.0,West,3.5,-,N/A,,Clear,280,2013-08-05 09:35:00
5:55 AM,78.8,77.0,94,29.99,7.0,WSW,3.5,-,N/A,,Clear,240,2013-08-05 09:55:00
6:15 AM,78.8,77.0,94,30.00,6.0,SW,3.5,-,N/A,,Clear,220,2013-08-05 10:15:00
6:35 AM,77.0,75.2,94,30.01,5.0,Calm,Calm,-,N/A,,Clear,0,2013-08-05 10:35:00
6:55 AM,77.0,77.0,100,30.01,5.0,WSW,3.5,-,N/A,,Clear,240,2013-08-05 10:55:00
7:15 AM,78.8,78.8,100,30.01,5.0,WSW,3.5,-,N/A,,Clear,240,2013-08-05 11:15:00
7:35 AM,78.8,78.8,100,30.01,7.0,WSW,4.6,-,N/A,,Clear,240,2013-08-05 11:35:00
7:55 AM,78.8,78.8,100,30.02,7.0,WSW,4.6,-,N/A,,Clear,250,2013-08-05 11:55:00
8:15 AM,80.6,78.8,94,30.02,7.0,WSW,4.6,-,N/A,,Clear,250,2013-08-05 12:15:00
8:35 AM,80.6,80.6,100,30.02,8.0,WSW,4.6,-,N/A,,Clear,250,2013-08-05 12:35:00
8:55 AM,82.4,80.6,94,30.03,7.0,West,3.5,-,N/A,,Clear,260,2013-08-05 12:55:00
9:15 AM,84.2,80.6,89,30.03,8.0,WSW,4.6,-,N/A,,Clear,250,2013-08-05 13:15:00
9:35 AM,87.8,80.6,79,30.02,8.0,West,6.9,-,N/A,,Clear,270,2013-08-05 13:35:00
9:55 AM,89.6,80.6,75,30.02,8.0,West,3.5,-,N/A,,Clear,280,2013-08-05 13:55:00
10:15 AM,89.6,78.8,70,30.02,8.0,West,5.8,-,N/A,,Clear,270,2013-08-05 14:15:00
10:35 AM,91.4,78.8,66,30.02,7.0,WNW,6.9,-,N/A,,Clear,290,2013-08-05 14:35:00
10:55 AM,93.2,78.8,63,30.03,7.0,West,5.8,-,N/A,,Clear,280,2013-08-05 14:55:00
11:15 AM,93.2,77.0,59,30.02,7.0,WNW,8.1,-,N/A,,Clear,300,2013-08-05 15:15:00
11:35 AM,95.0,78.8,59,30.02,8.0,WNW,9.2,-,N/A,,Clear,300,2013-08-05 15:35:00
11:55 AM,95.0,78.8,59,30.02,8.0,NW,9.2,-,N/A,,Partly Cloudy,320,2013-08-05 15:55:00
12:15 PM,93.2,77.0,59,30.01,8.0,NW,6.9,-,N/A,,Partly Cloudy,310,2013-08-05 16:15:00
12:35 PM,96.8,77.0,53,30.00,8.0,NW,6.9,-,N/A,,Partly Cloudy,310,2013-08-05 16:35:00
12:55 PM,95.0,75.2,53,29.99,9.0,WNW,8.1,-,N/A,,Partly Cloudy,300,2013-08-05 16:55:00
1:15 PM,93.2,77.0,59,30.00,8.0,WNW,6.9,-,N/A,,Partly Cloudy,300,2013-08-05 17:15:00
1:35 PM,95.0,77.0,56,29.97,7.0,NW,10.4,-,N/A,,Scattered Clouds,310,2013-08-05 17:35:00
1:55 PM,96.8,75.2,50,29.97,8.0,NW,8.1,-,N/A,,Partly Cloudy,310,2013-08-05 17:55:00
2:15 PM,96.8,75.2,50,29.97,8.0,North,6.9,-,N/A,,Partly Cloudy,350,2013-08-05 18:15:00
2:35 PM,96.8,75.2,50,29.97,8.0,East,10.4,-,N/A,,Scattered Clouds,100,2013-08-05 18:35:00
2:55 PM,89.6,75.2,62,29.96,8.0,SE,6.9,-,N/A,,Mostly Cloudy,130,2013-08-05 18:55:00
3:15 PM,91.4,75.2,59,29.95,8.0,SE,11.5,-,N/A,,Partly Cloudy,140,2013-08-05 19:15:00
3:35 PM,91.4,77.0,63,29.95,9.0,SE,9.2,-,N/A,,Clear,130,2013-08-05 19:35:00
3:55 PM,91.4,75.2,59,29.95,8.0,SE,10.4,-,N/A,,Clear,130,2013-08-05 19:55:00
4:15 PM,91.4,75.2,59,29.94,7.0,SE,9.2,-,N/A,,Partly Cloudy,130,2013-08-05 20:15:00
4:35 PM,82.4,75.2,79,29.97,0.8,ENE,6.9,24.2,0.33,,Overcast,70,2013-08-05 20:35:00
4:55 PM,78.8,73.4,83,29.95,1.0,SW,10.4,20.7,0.55,,Overcast,220,2013-08-05 20:55:00
5:15 PM,77.0,73.4,89,29.95,8.0,South,6.9,-,0.02,,Mostly Cloudy,180,2013-08-05 21:15:00
5:35 PM,77.0,73.4,89,29.95,8.0,Calm,Calm,-,0.02,,Clear,0,2013-08-05 21:35:00
5:55 PM,77.0,75.2,94,29.95,8.0,Calm,Calm,-,0.03,,Partly Cloudy,0,2013-08-05 21:55:00
6:15 PM,78.8,75.2,89,29.96,8.0,SW,4.6,-,N/A,,Partly Cloudy,220,2013-08-05 22:15:00
6:35 PM,78.8,77.0,94,29.95,7.0,West,5.8,-,N/A,,Scattered Clouds,260,2013-08-05 22:35:00
6:55 PM,78.8,75.2,89,29.97,7.0,WSW,4.6,-,N/A,,Partly Cloudy,250,2013-08-05 22:55:00
7:15 PM,78.8,75.2,89,29.98,6.0,West,3.5,-,N/A,,Clear,260,2013-08-05 23:15:00
7:35 PM,78.8,75.2,89,29.98,6.0,Calm,Calm,-,N/A,,Clear,0,2013-08-05 23:35:00
7:55 PM,78.8,75.2,89,29.99,8.0,Calm,Calm,-,N/A,,Clear,0,2013-08-05 23:55:00
8:15 PM,78.8,75.2,89,29.98,6.0,SW,6.9,-,N/A,,Clear,220,2013-08-06 00:15:00
8:35 PM,77.0,75.2,94,29.99,7.0,South,4.6,-,N/A,,Clear,170,2013-08-06 00:35:00
8:55 PM,77.0,75.2,94,29.99,7.0,Calm,Calm,-,N/A,,Clear,0,2013-08-06 00:55:00
9:15 PM,77.0,75.2,94,29.99,7.0,WSW,5.8,-,N/A,,Clear,250,2013-08-06 01:15:00
9:35 PM,77.0,75.2,94,29.99,8.0,West,4.6,-,N/A,,Clear,260,2013-08-06 01:35:00
9:55 PM,75.2,75.2,100,30.00,7.0,West,3.5,-,N/A,,Clear,280,2013-08-06 01:55:00
10:15 PM,75.2,73.4,94,30.01,6.0,Calm,Calm,-,N/A,,Clear,0,2013-08-06 02:15:00
10:35 PM,75.2,75.2,100,30.02,7.0,SW,3.5,-,N/A,,Clear,230,2013-08-06 02:35:00
10:55 PM,75.2,75.2,100,30.02,6.0,South,3.5,-,N/A,,Clear,170,2013-08-06 02:55:00
11:15 PM,75.2,75.2,100,30.02,6.0,Calm,Calm,-,N/A,,Clear,0,2013-08-06 03:15:00
11:35 PM,75.2,75.2,100,30.01,5.0,Calm,Calm,-,N/A,,Clear,0,2013-08-06 03:35:00
11:55 PM,75.2,75.2,100,30.00,5.0,WSW,4.6,-,N/A,,Clear,250,2013-08-06 03:55:00